Regional Weather Roundup
Issued by NWS Sioux Falls, SD

Home | Current Version | Previous Version | Graphics & Text | Print | Product List | Glossary Off
Versions: 1 2 3 4 5 6 7 8 9 10 11 12 13 14 15 16 17 18 19 20 21 22 23 24 25 26 27 28 29 30 31 32 33 34 35 36 37 38 39 40 41 42 43 44 45 46 47 48 49 50

000
ASUS43 KFSD 202210
RWRFSD

WEATHER ROUNDUP FOR SE SOUTH DAKOTA/SW MINNESOTA/NW IOWA
NATIONAL WEATHER SERVICE SIOUX FALLS SD
400 PM CST SAT DEC 20 2014

NOTE: "FAIR" INDICATES FEW OR NO CLOUDS BELOW 12,000 FEET WITH NO
SIGNIFICANT WEATHER AND OR OBSTRUCTIONS TO VISIBILITY.


SDZ038>040-050-052>070-202300-
SOUTHEAST SOUTH DAKOTA

CITY           SKY/WX    TMP DP  RH WIND       PRES   REMARKS
CHAMBERLAIN    CLOUDY    28  25  89 E6        29.93S WCI  21
HURON          CLOUDY    30  29  96 S10       29.96F FOG     WCI  21
MADISON        FOG       28  28 100 S13       29.97F VSB 3/4 WCI  18
MITCHELL       CLOUDY    31  30  96 S14       29.99R FOG     WCI  21
SIOUX FALLS    CLOUDY    30  28  92 SE12      30.01S FOG     WCI  20
WINNER         CLOUDY    37  28  70 SW5       29.91R
YANKTON        CLOUDY    32  30  93 S12       30.02S WCI  23
$$

MNZ071-072-080-081-089-090-097-098-202300-
SOUTHWEST MINNESOTA

CITY           SKY/WX    TMP DP  RH WIND       PRES   REMARKS
FAIRMONT       CLOUDY    30  27  86 S10       30.08S WCI  21
JACKSON        CLOUDY    32  30  93 S7        30.07R WCI  26
LUVERNE        CLOUDY    32  30  93 S12       30.04R FOG     WCI  23
MARSHALL       CLOUDY    30  27  86 S10       30.03S WCI  21
MONTEVIDEO     CLOUDY    32  30  93 S7        30.04S WCI  26
PIPESTONE      FOG       28  28 100 S5        30.00S VSB 3/4 WCI  23
REDWOOD FALLS  CLOUDY    32  28  85 S13       30.06R WCI  22
TRACY          CLOUDY    32  30  92 S10G20    30.03S FOG     WCI  23
WINDOM         CLOUDY    30  28  93 SE9       30.05S WCI  22
WORTHINGTON    CLOUDY    30  28  93 S9        30.05R WCI  22
$$

IAZ001>003-012>014-020>022-031-032-NEZ013-014-SDZ071-202300-
NORTHWEST IOWA

CITY           SKY/WX    TMP DP  RH WIND       PRES   REMARKS
CHEROKEE       CLOUDY    32  32  99 S8        30.06S WCI  25
DENISON        CLOUDY    32  32 100 S8        30.06R FOG     WCI  25
ESTHERVILLE    CLOUDY    31  28  89 S12       30.07R WCI  22
LE MARS        CLOUDY    32  30  93 S12       30.05S WCI  23
ORANGE CITY    CLOUDY    34  28  80 S9        30.04R FOG     WCI  26
SHELDON        CLOUDY    30  32 100 S13       30.04R FOG     WCI  20
SIOUX CITY     CLOUDY    33  30  88 S12       30.06R WCI  24
SPENCER        CLOUDY    32  28  85 S12       30.06R WCI  23
STORM LAKE     CLOUDY    32  32 100 S10       30.07R WCI  24
$$

ABBREVIATIONS USED IN REMARKS
   TC - TEMPERATURE IN CELSIUS
  WCI - WIND CHILL INDEX
   HX - HEAT INDEX
  VSB - VISIBILITY



USA.gov is the U.S. government's official web portal to all federal, state and local government web resources and services.